TimeAKDT,TemperatureF,Dew PointF,Humidity,Sea Level PressureIn,VisibilityMPH,Wind Direction,Wind SpeedMPH,Gust SpeedMPH,PrecipitationIn,Events,Conditions,WindDirDegrees,DateUTC
12:56 AM,36.9,32.9,86,29.96,10.0,NE,17.3,-,N/A,,Overcast,50,2013-08-20 08:56:00
1:28 AM,35.6,32.0,87,29.95,10.0,NE,15.0,-,N/A,,Overcast,50,2013-08-20 09:28:00
1:56 AM,36.0,32.0,86,29.96,10.0,NE,16.1,-,N/A,,Overcast,50,2013-08-20 09:56:00
2:04 AM,35.6,32.0,87,29.95,10.0,NE,15.0,-,N/A,,Overcast,50,2013-08-20 10:04:00
2:48 AM,35.6,30.2,81,29.96,10.0,NE,17.3,-,N/A,,Overcast,50,2013-08-20 10:48:00
2:56 AM,34.9,30.0,82,29.97,10.0,NE,13.8,-,N/A,,Overcast,50,2013-08-20 10:56:00
3:56 AM,32.9,29.1,86,29.98,10.0,NE,15.0,-,N/A,,Overcast,40,2013-08-20 11:56:00
4:56 AM,32.9,28.0,82,29.99,10.0,NE,17.3,-,N/A,,Overcast,40,2013-08-20 12:56:00
5:56 AM,32.0,28.0,85,29.99,10.0,NE,15.0,-,N/A,,Overcast,50,2013-08-20 13:56:00
6:56 AM,30.2,26.6,86,29.98,4.0,NE,18.4,-,N/A,Snow,Light Snow,50,2013-08-20 14:56:00
7:31 AM,30.2,26.6,86,29.99,10.0,East,17.3,-,0.00,,Overcast,80,2013-08-20 15:31:00
7:41 AM,30.2,26.6,86,29.99,10.0,East,17.3,-,0.00,,Overcast,80,2013-08-20 15:41:00
7:56 AM,30.0,25.2,82,30.00,10.0,East,16.1,-,0.00,,Overcast,80,2013-08-20 15:56:00
8:56 AM,30.0,25.2,82,30.01,10.0,East,16.1,-,N/A,,Overcast,80,2013-08-20 16:56:00
9:56 AM,30.2,24.8,80,30.00,10.0,ENE,16.1,21.9,N/A,,Overcast,70,2013-08-20 17:56:00
10:56 AM,31.1,25.2,79,30.01,10.0,ENE,15.0,-,N/A,,Overcast,60,2013-08-20 18:56:00
11:56 AM,31.1,24.1,75,30.01,10.0,ENE,13.8,-,N/A,,Mostly Cloudy,70,2013-08-20 19:56:00
12:56 PM,32.0,25.2,76,30.01,10.0,ENE,16.1,-,N/A,,Mostly Cloudy,70,2013-08-20 20:56:00
1:56 PM,34.0,26.1,73,30.00,10.0,ENE,15.0,-,N/A,,Mostly Cloudy,60,2013-08-20 21:56:00
2:06 PM,33.8,26.6,75,29.99,10.0,NE,13.8,-,N/A,,Scattered Clouds,40,2013-08-20 22:06:00
2:56 PM,34.9,26.1,70,30.01,10.0,ENE,16.1,23.0,N/A,,Partly Cloudy,60,2013-08-20 22:56:00
3:56 PM,36.9,27.1,68,30.00,10.0,ENE,13.8,-,N/A,,Clear,70,2013-08-20 23:56:00
4:56 PM,37.9,27.1,65,29.99,10.0,NE,15.0,-,N/A,,Clear,50,2013-08-21 00:56:00
5:56 PM,38.8,27.1,63,29.98,10.0,ENE,13.8,-,N/A,,Clear,60,2013-08-21 01:56:00
6:56 PM,39.9,28.0,63,29.97,10.0,ENE,15.0,-,N/A,,Clear,60,2013-08-21 02:56:00
7:56 PM,38.8,27.1,63,29.96,10.0,ENE,17.3,-,N/A,,Clear,60,2013-08-21 03:56:00
8:56 PM,38.8,28.0,65,29.95,10.0,ENE,13.8,-,N/A,,Clear,60,2013-08-21 04:56:00
9:56 PM,37.9,28.0,68,29.95,10.0,East,15.0,-,N/A,,Clear,80,2013-08-21 05:56:00
10:56 PM,34.9,28.0,76,29.94,10.0,ENE,13.8,-,N/A,,Clear,70,2013-08-21 06:56:00
11:56 PM,32.9,28.0,82,29.94,10.0,ENE,12.7,-,N/A,,Clear,60,2013-08-21 07:56:00